User: anonymous   Login
Location: NJAA Observatory
(40.6819°N, 74.8979°W)
Time: 16:34:24
(UTC-05:00)
Language:

Cosmos 1633 - Orbit

View from above orbital plane
View from above orbital plane
View from above satellite
View from above satellite

Ground track
Ground track

The orbit data is extracted from the following two-line orbital elements,

1 15592U 85020A   15028.79413559  .00005893  00000-0  25687-3 0  6562
2 15592 082.5413 108.1456 0015790 008.8189 130.7045 15.21877282631551
Epoch (UTC): 28 January 2015 19:03:33
Eccentricity: 0.0015790
inclination: 82.5413°
perigee height: 489 km
apogee height: 511 km
right ascension of ascending node: 108.1456°
argument of perigee: 8.8189°
revolutions per day: 15.21877282
mean anomaly at epoch: 130.7045°
orbit number at epoch: 63155

The dashed part of the orbit path shows where the satellite is in the earth's shadow,  

DLR